Bismarck, ND

2:03 AM CDT on April 28, 2017 (GMT -0500)
Bismarck Municipal

Weather History for KBIS - January, 2014

Change the Weather History Date:

Sunday, January 19, 2014

  Actual Average Record
Temperature  
Mean Temperature 35 °F 13 °F  
Max Temperature 43 °F 23 °F 60 °F (1908)
Min Temperature 27 °F 2 °F -39 °F (1996)
Degree Days  
Heating Degree Days 30 52  
Month to date heating degree days 947 1000  
Since 1 July heating degree days 4677 4500  
Cooling Degree Days 0 0  
Month to date cooling degree days 0 0  
Year to date cooling degree days 0 0  
Moisture  
Dew Point 27 °F    
Average Humidity 69    
Maximum Humidity 81    
Minimum Humidity 57    
Precipitation  
Precipitation 0.00 in 0.01 in 0.23 in (1880)
Month to date precipitation 0.09 0.28  
Year to date precipitation 0.09 0.28  
Snow  
Snow 0.00 in 0.30 in 3.70 in (1979)
Month to date snowfall 2.8 5.9  
Since 1 July snowfall 19.9 26.4  
Snow Depth 4.00 in    
Sea Level Pressure  
Sea Level Pressure 29.71 in    
Wind  
Wind Speed 13 mph (West)    
Max Wind Speed 29 mph    
Max Gust Speed 41 mph    
Visibility 10 miles    
Events      
T = Trace of Precipitation, MM = Missing Value Source: NWS Daily Summary

Daily Weather History Graph

Daily Weather History Graph

Search for Another Location

Airport or City:

Trip Planner

Search our weather history database for the weather conditions in past years. The results will help you decide how hot, cold, wet, or windy it might be!

Date:

Astronomy

Jan. 19, 2014 Rise Set
Actual Time 8:20 AM CST 5:27 PM CST
Civil Twilight 7:46 AM CST 6:01 PM CST
Nautical Twilight 7:09 AM CST 6:38 PM CST
Astronomical Twilight 6:33 AM CST 7:14 PM CST
Moon 9:23 PM CST (1/19) 9:36 AM CST (1/19)
Length of Visible Light 10h 14m
Length of Day
9h 06m
Waning Gibbous, 89% of the Moon is Illuminated
Jan 19
Waning Gibbous
Jan 23
Last Quarter
Jan 30
New
Feb 6
First Quarter
Feb 14
Full

Hourly Weather History & Observations

Time (CST) Temp. Windchill Dew Point Humidity Pressure Visibility Wind Dir Wind Speed Gust Speed Precip Events Conditions
12:52 AM 35.1 °F 27.4 °F 27.0 °F 72% 29.70 in 10.0 mi West 10.4 mph - N/A   Clear
1:52 AM 35.1 °F 29.3 °F 26.1 °F 70% 29.69 in 10.0 mi WSW 6.9 mph - N/A   Clear
2:52 AM 34.0 °F 28.8 °F 26.1 °F 73% 29.68 in 10.0 mi WSW 5.8 mph - N/A   Clear
3:52 AM 28.9 °F 23.9 °F 23.0 °F 78% 29.66 in 10.0 mi SSE 4.6 mph - N/A   Clear
4:52 AM 30.9 °F - 24.1 °F 76% 29.64 in 10.0 mi Calm Calm - N/A   Clear
5:52 AM 27.0 °F 23.0 °F 21.9 °F 81% 29.62 in 10.0 mi South 3.5 mph - N/A   Clear
6:52 AM 34.0 °F 29.8 °F 25.0 °F 70% 29.59 in 10.0 mi South 4.6 mph - N/A   Clear
7:52 AM 36.0 °F 26.3 °F 25.0 °F 64% 29.58 in 10.0 mi West 16.1 mph - N/A   Clear
8:52 AM 39.9 °F 29.2 °F 27.0 °F 60% 29.57 in 10.0 mi WNW 25.3 mph 38.0 mph N/A   Clear
9:52 AM 39.9 °F 29.7 °F 28.0 °F 63% 29.59 in 10.0 mi WNW 23.0 mph 34.5 mph N/A   Clear
10:52 AM 39.9 °F 29.0 °F 28.0 °F 63% 29.63 in 10.0 mi WNW 26.5 mph 36.8 mph N/A   Clear
11:52 AM 41.0 °F 30.9 °F 28.0 °F 60% 29.66 in 10.0 mi WNW 24.2 mph 36.8 mph N/A   Clear
12:52 PM 42.1 °F 32.6 °F 28.0 °F 58% 29.67 in 10.0 mi WNW 23.0 mph 36.8 mph N/A   Clear
1:52 PM 42.1 °F 33.1 °F 28.9 °F 60% 29.68 in 10.0 mi WNW 20.7 mph 32.2 mph N/A   Clear
2:52 PM 42.1 °F 32.8 °F 28.9 °F 60% 29.69 in 10.0 mi WNW 21.9 mph 31.1 mph N/A   Clear
3:52 PM 41.0 °F 32.8 °F 28.9 °F 62% 29.72 in 10.0 mi WNW 16.1 mph 27.6 mph N/A   Clear
4:52 PM 39.9 °F 32.1 °F 28.9 °F 65% 29.74 in 10.0 mi WNW 13.8 mph - N/A   Clear
5:52 PM 37.0 °F 31.0 °F 28.9 °F 73% 29.78 in 10.0 mi WNW 8.1 mph - N/A   Clear
6:52 PM 37.0 °F 30.4 °F 28.0 °F 70% 29.79 in 10.0 mi West 9.2 mph - N/A   Clear
7:52 PM 36.0 °F 28.0 °F 28.0 °F 73% 29.80 in 10.0 mi WNW 11.5 mph - N/A   Clear
8:52 PM 35.1 °F 27.9 °F 28.0 °F 76% 29.81 in 10.0 mi WNW 9.2 mph - N/A   Scattered Clouds
9:52 PM 35.1 °F 27.4 °F 27.0 °F 72% 29.84 in 10.0 mi WNW 10.4 mph - N/A   Scattered Clouds
10:52 PM 33.1 °F 25.5 °F 27.0 °F 78% 29.84 in 10.0 mi WNW 9.2 mph - N/A   Mostly Cloudy
11:52 PM 33.1 °F 24.9 °F 27.0 °F 78% 29.86 in 10.0 mi WNW 10.4 mph - N/A   Scattered Clouds